Wind_Speed
17 18 18 19 20 22 23 24 26 26 26 27 28 29 30 30 30 32 33 30 29 29 28 28 26 26 27 25 26 27 27 26 25 25 24 23 23 24 25 25 26 25 23 23 24 24 24 25 25 22 21 21 18 17 15 13 13 12 13 13 13 13 13 11 11 11 11 11 12 13 14 14 13 13 12 12 12 11 11 12 13 13 14 14 15 15
17 17 18 20 21 22 22 23 24 24 24 25 25 27 28 28 29 31 31 29 28 28 28 28 25 26 26 26 27 28 27 27 26 25 24 23 23 24 25 26 27 26 23 22 22 23 24 25 24 21 21 22 20 17 15 14 14 15 14 12 13 13 13 14 14 13 13 13 14 14 15 14 13 12 12 11 11 11 11 13 14 15 14 15 15 15
17 18 20 21 21 21 21 21 22 23 23 23 23 25 25 26 28 29 28 28 28 27 28 26 24 26 26 25 26 27 26 26 25 25 23 23 24 25 25 25 25 23 21 20 21 23 24 24 22 19 18 20 20 16 14 15 15 15 14 13 14 15 15 16 16 16 16 15 15 15 15 14 13 12 12 11 11 11 12 13 15 15 15 14 15 16
18 20 20 19 19 19 20 20 21 22 21 21 21 22 22 24 25 25 26 28 27 26 26 24 23 25 25 25 25 24 23 23 22 22 22 24 25 24 24 23 23 21 19 19 21 22 23 23 22 20 18 18 17 14 14 15 14 14 14 14 15 16 16 17 18 18 17 16 15 15 14 14 13 12 12 11 11 11 12 13 15 15 15 14 14 15
20 20 18 17 17 18 19 19 20 20 19 18 19 19 21 22 23 25 25 25 25 23 22 21 22 24 23 22 22 21 20 19 19 19 21 23 24 23 22 22 20 18 18 19 21 22 22 23 19 14 15 16 12 11 12 12 13 14 14 15 16 16 17 19 19 19 18 16 15 13 13 14 13 12 12 11 11 11 11 13 14 15 15 14 14 14
20 17 16 16 17 17 18 18 18 17 17 17 16 17 20 21 23 25 23 21 21 20 19 19 20 21 21 19 19 18 17 17 18 19 20 20 20 20 19 18 15 14 17 19 21 22 21 21 16 8 11 13 10 8 9 10 12 14 14 16 18 19 19 20 21 20 19 17 16 14 14 14 14 13 13 12 12 12 12 12 13 14 15 14 14 14
18 15 15 16 15 16 16 16 17 16 15 15 16 17 19 20 21 22 21 19 17 16 18 19 18 18 18 18 17 17 17 17 18 18 18 18 18 17 15 14 13 14 18 20 21 21 21 21 17 9 8 10 8 8 10 11 13 15 16 17 19 20 21 21 22 21 19 18 17 16 15 15 15 14 14 14 14 13 13 13 13 14 16 16 15 14
16 15 15 15 14 14 14 15 15 15 15 15 16 18 18 19 20 20 19 18 15 14 16 18 19 18 18 18 16 16 17 17 17 18 18 18 17 15 15 15 16 17 18 19 19 20 20 20 19 14 11 10 10 11 13 15 16 17 18 19 20 21 22 22 22 21 20 18 18 17 16 16 16 15 16 16 15 15 15 15 14 14 16 17 17 16
17 16 15 15 14 14 15 16 15 16 16 16 16 17 18 18 19 19 18 16 16 15 16 19 20 18 19 18 16 16 17 17 18 19 19 18 17 17 17 18 19 19 19 19 18 19 19 19 19 17 14 14 14 15 17 19 20 21 21 21 22 23 25 25 24 23 21 19 18 18 17 16 16 16 17 17 16 16 16 16 16 15 16 18 19 19
18 18 16 16 15 15 16 16 16 16 17 16 16 17 17 18 18 18 16 15 16 16 17 19 19 18 20 19 17 17 18 18 19 20 20 19 19 19 20 20 20 20 19 18 17 18 18 18 17 16 15 15 17 19 23 25 24 23 22 23 24 25 26 26 26 24 20 18 18 18 18 17 17 17 17 17 17 16 16 17 17 16 16 17 19 20
18 17 17 16 15 15 15 15 15 16 15 15 16 16 16 16 17 16 15 15 15 16 19 19 18 19 19 18 19 19 19 19 19 19 19 19 19 19 20 19 18 18 18 19 19 18 17 17 16 16 16 18 21 25 28 27 25 22 21 22 22 22 23 25 26 24 18 16 18 18 18 18 17 17 17 17 17 17 17 18 18 18 18 18 19 20
18 17 16 16 15 14 14 14 14 14 15 15 15 15 15 15 15 15 15 17 17 17 19 18 19 20 18 18 20 19 20 21 20 21 21 20 19 19 19 18 17 17 17 18 18 17 15 14 14 15 17 22 26 29 29 25 22 20 21 23 23 21 22 24 26 24 18 16 17 18 19 18 18 17 17 18 18 19 20 21 20 20 20 21 21 21
18 17 15 15 15 15 14 14 15 15 15 15 15 15 15 14 15 17 17 18 19 20 20 19 21 21 21 23 22 18 21 24 23 23 22 21 20 19 19 18 17 17 17 17 16 15 14 13 14 15 18 25 29 29 28 24 21 20 24 27 25 22 24 24 25 25 20 17 17 18 19 20 19 19 18 19 20 21 22 23 23 22 22 22 21 20
19 19 18 17 17 16 16 16 15 15 14 14 14 15 15 14 15 17 18 19 19 21 21 20 22 22 24 29 26 20 22 25 26 25 24 23 22 20 20 19 18 18 18 17 16 16 17 17 17 18 20 27 31 30 27 23 23 25 26 27 26 25 26 26 26 25 21 18 18 19 21 22 21 20 20 20 20 20 22 22 22 21 20 20 19 18
21 20 19 19 19 18 17 16 16 15 14 14 15 15 15 16 15 16 17 19 19 20 21 21 23 24 27 29 26 24 25 26 27 27 26 26 24 23 23 22 20 20 19 18 18 19 21 21 22 23 24 28 31 31 27 21 23 28 27 26 25 25 25 26 27 27 23 21 20 21 22 23 23 21 20 19 19 20 22 23 22 21 21 20 20 18
23 21 21 21 20 19 18 18 18 16 16 18 18 18 19 19 18 17 18 19 18 19 21 22 24 26 27 26 24 25 26 26 28 28 28 28 27 26 26 25 24 23 21 21 21 22 24 26 27 27 25 27 30 32 29 24 25 28 28 26 25 24 24 24 27 28 27 23 21 22 23 23 22 19 16 16 17 20 23 24 23 22 23 23 22 19
22 22 22 21 21 21 20 20 20 18 19 20 20 21 20 19 19 18 18 20 20 20 22 22 24 25 27 27 26 26 26 27 28 29 29 29 28 28 28 27 27 26 25 25 25 26 28 30 31 28 24 25 29 32 32 28 26 28 29 28 27 28 26 23 25 28 26 23 20 20 20 19 16 12 11 12 15 18 21 23 22 22 23 22 20 19
21 21 21 22 23 23 22 22 22 22 22 21 21 21 19 18 21 21 19 20 21 22 23 23 23 24 25 27 29 29 29 29 29 30 30 30 30 30 29 29 30 29 29 29 29 30 32 33 34 30 27 29 31 32 33 29 25 27 29 28 29 30 28 25 24 23 21 18 16 15 15 13 10 9 10 13 15 17 18 19 20 21 21 19 18 19
22 21 21 22 24 24 24 24 24 25 25 23 23 22 19 18 21 22 22 22 21 21 22 23 24 24 24 25 26 29 32 32 32 32 32 32 32 32 32 32 32 32 33 33 34 34 36 38 38 33 31 32 32 32 33 30 26 28 27 27 29 29 27 25 23 21 19 17 16 14 13 12 11 11 13 14 16 17 16 16 16 17 18 19 18 18
24 23 22 22 24 25 26 27 26 26 27 27 26 24 23 23 22 21 22 21 20 20 21 22 22 22 24 25 24 25 28 30 31 33 33 33 33 33 34 34 34 34 34 35 35 36 37 39 38 36 35 36 35 34 33 31 29 31 30 29 26 22 20 21 20 19 18 16 15 14 14 13 13 13 13 15 16 16 15 14 14 15 16 17 17 16
26 26 24 23 24 25 26 27 27 26 26 27 27 26 26 26 24 23 22 21 20 19 19 19 20 21 22 23 22 21 23 25 28 30 31 32 33 33 33 33 33 32 32 33 34 35 36 35 32 32 36 39 39 37 36 34 33 35 35 33 30 26 23 22 21 19 17 16 15 14 14 13 13 13 14 14 14 14 14 13 13 14 14 14 15 16
28 28 27 26 24 24 26 27 27 28 26 25 24 23 23 23 23 25 25 24 23 21 19 17 18 19 18 19 21 21 22 24 25 26 27 29 30 30 30 30 30 30 29 29 30 32 34 33 28 26 29 33 36 36 35 35 35 35 35 34 35 32 25 20 18 17 16 15 15 14 14 14 15 15 15 15 14 14 14 14 14 14 14 15 16 17
29 28 29 29 27 26 27 26 27 28 28 27 27 25 23 22 22 23 23 23 23 23 23 20 19 19 17 17 19 19 20 22 22 24 25 26 27 27 27 28 27 27 26 26 26 28 29 28 26 26 26 27 29 30 31 31 32 33 32 31 30 27 20 16 15 15 16 16 16 16 16 16 17 17 16 16 16 14 14 14 15 15 14 15 15 16
32 31 31 30 29 29 29 27 27 28 29 30 31 31 29 27 25 25 23 23 21 21 22 21 21 21 17 15 17 17 17 19 19 21 22 22 23 23 23 23 23 24 24 24 25 25 26 26 25 25 24 23 23 24 24 25 27 30 28 26 23 20 17 16 16 16 17 17 17 17 17 17 18 18 18 17 16 15 15 15 16 15 14 14 15 16
34 34 33 32 31 30 29 29 30 30 31 32 31 32 33 32 31 30 28 26 23 22 21 19 21 22 18 16 17 16 16 17 18 19 20 20 20 19 19 19 19 20 21 22 23 23 22 22 23 23 22 21 21 21 21 22 24 26 24 21 19 17 16 15 15 16 17 18 18 18 18 19 19 19 18 17 16 16 16 16 17 17 16 16 16 16
34 35 34 34 34 31 29 31 30 29 30 31 31 32 34 35 34 32 30 28 28 27 24 21 22 21 18 17 18 17 18 18 18 19 19 20 20 19 19 19 18 18 19 19 20 20 20 19 19 19 19 19 19 20 21 22 23 24 22 19 18 18 17 16 16 16 16 17 19 19 19 19 20 20 19 19 18 17 16 17 18 18 19 19 19 19
31 35 36 37 37 35 33 32 30 28 28 29 31 32 33 34 34 33 31 28 28 28 26 24 24 23 20 18 18 19 19 19 19 19 19 20 21 21 21 20 19 19 19 18 19 19 19 19 19 19 18 18 19 19 20 20 21 22 22 20 19 19 18 18 17 17 18 18 19 19 19 19 20 21 21 21 20 20 19 19 20 21 22 22 22 22
27 32 36 38 39 40 38 34 31 29 29 29 30 31 32 33 33 33 32 29 26 25 24 24 24 24 23 22 21 22 21 21 20 20 20 20 20 21 21 21 20 20 20 20 20 20 20 20 21 20 19 18 18 19 19 19 20 21 22 22 22 21 20 20 20 20 20 20 20 20 20 20 21 22 23 23 24 24 24 24 24 24 25 25 25 25
24 26 28 30 32 37 41 39 34 32 32 32 31 30 31 32 32 33 33 31 30 28 26 26 26 25 25 25 24 24 24 23 22 22 21 21 21 22 22 22 22 22 21 21 21 22 22 22 22 22 21 20 20 21 22 22 23 24 24 25 25 25 25 24 24 23 23 23 23 23 23 23 24 24 25 26 26 27 28 28 28 28 28 28 28 28
25 25 24 23 22 24 31 38 39 37 35 34 34 33 33 33 33 34 33 33 33 32 31 31 29 27 27 27 26 26 25 25 24 24 24 23 23 23 23 24 24 25 24 24 24 25 25 25 24 23 23 22 22 23 24 24 25 26 26 26 27 27 28 28 27 27 27 27 28 28 28 28 28 29 29 30 30 30 31 31 32 32 32 32 33 32
25 24 24 23 21 18 19 25 33 39 39 38 37 36 35 35 35 34 34 34 34 34 34 34 33 32 31 29 28 28 27 27 26 26 26 26 26 26 26 27 28 28 28 28 28 29 29 29 28 27 27 26 25 25 26 27 27 28 28 28 29 29 30 31 31 31 32 33 33 33 33 34 34 34 34 35 35 35 35 35 35 36 36 37 37 37
21 21 20 21 21 21 19 18 22 29 35 39 40 40 39 38 38 37 36 36 36 37 37 36 36 36 35 33 32 32 31 30 30 29 29 30 30 31 31 32 32 32 32 32 32 32 33 33 33 32 32 31 30 30 30 31 31 32 32 32 32 33 33 34 35 36 36 37 37 38 38 38 39 39 39 39 40 40 40 39 39 40 40 40 41 42
23 22 21 21 22 23 22 21 21 21 25 30 34 37 39 40 40 40 40 40 40 40 40 40 40 39 38 37 36 35 34 34 33 33 33 34 35 36 38 39 38 36 35 35 35 35 36 36 37 37 37 36 36 35 35 35 35 35 36 36 36 36 37 37 38 39 39 40 41 41 42 42 42 43 43 43 43 43 43 43 43 42 41 41 41 42
28 26 24 23 24 24 22 22 23 24 25 24 24 28 33 35 36 37 39 40 40 41 43 43 43 43 41 40 39 38 37 36 36 36 36 37 38 38 39 38 37 36 35 35 37 37 37 37 38 38 39 39 38 38 38 39 39 39 39 39 40 41 41 42 42 42 43 43 44 44 45 46 46 46 46 46 45 44 44 43 42 40 39 40 41 42
27 25 23 23 25 24 22 22 25 27 26 24 22 24 26 28 29 30 32 34 36 38 40 42 43 43 43 42 42 41 41 40 40 40 40 40 40 40 39 37 37 37 37 37 38 38 37 37 38 39 39 40 41 42 42 43 43 43 44 44 44 45 45 46 46 46 46 47 47 48 49 49 49 49 49 47 46 44 41 40 40 40 40 40 41 41
26 24 23 24 26 25 23 24 25 24 23 23 24 25 26 26 27 28 28 29 30 32 34 36 37 39 40 41 42 42 43 43 42 41 40 40 41 42 43 42 43 42 41 41 42 41 39 39 40 42 43 44 45 45 45 46 47 48 48 48 49 49 49 49 49 49 49 48 48 48 48 47 47 47 46 45 44 42 41 42 42 42 42 41 41 41
27 27 26 26 27 26 25 26 24 22 22 24 25 25 26 26 27 27 27 27 28 29 30 30 31 32 33 34 36 37 38 39 40 42 41 40 40 41 41 42 44 44 41 38 39 39 40 41 42 44 45 46 47 47 48 49 50 50 51 51 51 52 52 52 52 51 51 50 48 47 46 45 45 44 44 44 44 44 44 44 44 43 42 42 43 43
28 29 29 28 28 27 28 29 27 24 24 24 24 26 27 28 28 29 28 28 28 29 30 30 30 29 29 30 30 31 32 33 35 37 39 40 41 41 41 42 43 44 42 39 37 35 36 37 38 39 40 42 43 45 46 47 49 50 51 52 53 54 54 54 54 53 53 52 51 50 49 49 48 46 46 45 46 45 45 44 44 43 43 44 45 45
31 31 30 30 30 29 28 29 29 28 27 25 26 27 28 28 29 30 31 30 30 30 30 30 30 30 30 30 30 31 33 34 35 35 36 38 39 41 42 44 45 45 44 45 44 43 43 43 43 42 42 43 45 46 48 50 52 53 54 55 56 56 57 57 56 56 55 54 54 54 54 54 53 52 51 50 49 47 46 45 44 45 45 47 48 49
32 32 32 31 30 29 28 27 27 27 26 26 27 29 30 30 30 31 32 31 30 30 30 30 31 31 32 32 33 33 35 36 36 36 37 38 39 41 42 44 46 47 48 49 50 51 52 52 53 53 53 54 54 55 56 57 58 58 59 59 60 60 60 60 59 59 59 58 58 58 58 58 59 59 58 57 56 54 53 52 51 52 53 54 55 54
32 31 32 33 32 31 30 29 28 27 25 25 27 29 30 30 30 31 32 31 30 31 32 32 33 34 34 35 36 36 36 36 36 37 38 39 40 41 43 44 46 48 49 51 52 53 55 56 57 57 58 58 59 59 60 60 60 61 61 61 62 62 62 62 62 62 62 62 62 61 61 62 62 62 62 62 62 62 61 61 61 61 61 60 60 58
31 31 32 34 34 34 34 34 34 33 31 30 32 33 33 33 33 33 32 32 32 33 34 34 35 36 37 38 38 38 38 38 38 39 39 40 41 42 43 45 46 48 49 51 52 53 55 56 57 58 58 59 60 60 61 61 61 62 62 63 63 64 64 64 64 64 65 65 65 64 64 64 64 64 64 64 64 63 63 63 62 62 61 60 60 60
32 32 33 34 35 36 36 38 40 41 39 38 38 39 39 38 38 37 37 37 37 37 37 38 39 39 40 40 41 41 41 41 41 42 42 43 44 45 46 47 48 49 50 52 53 54 55 56 57 57 58 59 60 60 61 62 62 63 64 64 65 65 65 65 66 66 66 66 66 66 67 67 66 66 65 65 64 64 63 63 62 60 59 58 57 58
35 35 35 35 36 36 36 38 40 41 41 41 41 41 40 40 40 40 40 40 41 41 41 41 41 41 42 42 42 42 43 43 44 44 45 46 46 47 48 49 50 51 52 53 54 55 56 57 58 59 60 60 61 62 63 64 64 65 65 65 66 66 66 66 66 66 65 65 65 66 66 67 68 68 67 67 66 65 64 63 62 60 58 57 57 56
36 37 37 37 37 37 37 38 39 39 40 42 42 42 42 42 42 42 41 41 42 42 42 42 42 42 43 43 44 44 45 45 46 47 47 48 49 49 50 51 52 53 54 55 55 56 57 58 59 60 61 62 62 63 63 64 64 64 64 64 64 64 64 64 64 64 63 63 64 65 66 67 67 68 68 68 67 66 65 64 63 61 59 59 60 58
35 36 36 37 37 38 38 39 39 39 40 41 42 43 43 43 43 43 43 43 42 43 43 43 43 43 43 44 44 45 46 47 47 48 49 50 50 51 52 52 53 54 54 55 56 56 57 57 58 58 59 59 60 60 61 61 61 61 61 62 62 62 63 63 64 65 66 66 67 68 69 69 69 69 69 69 69 69 67 66 65 63 61 61 60 58
33 33 34 34 35 36 37 38 39 39 40 40 40 41 42 42 42 42 41 41 41 41 42 42 43 43 43 44 44 44 45 45 46 47 48 48 49 50 50 51 51 52 53 53 54 54 55 55 56 56 57 57 58 58 59 60 60 61 61 61 62 63 63 64 65 66 66 66 67 67 67 68 68 68 68 68 68 68 68 67 66 65 63 61 60 59
26 29 30 31 32 33 34 36 37 37 38 38 38 39 39 39 40 40 40 40 40 40 41 41 41 42 42 42 42 43 43 43 44 45 45 46 47 47 48 48 49 49 50 51 52 52 53 53 54 54 55 55 56 56 57 58 59 59 59 59 59 60 61 61 62 62 63 63 64 64 64 65 65 65 66 65 65 65 66 66 65 65 64 62 61 61
19 22 24 26 27 29 30 31 32 33 34 35 36 36 36 37 37 36 37 37 37 37 38 38 38 39 39 39 39 40 40 40 41 41 42 42 43 44 45 46 47 48 48 49 50 50 51 52 53 54 55 56 57 58 58 59 59 58 58 58 58 59 59 60 61 61 62 63 63 63 64 65 65 65 66 66 65 65 65 65 64 63 63 62 62 62
14 15 17 19 20 22 24 26 27 28 29 30 31 31 32 32 33 33 33 33 34 35 35 36 36 37 37 36 37 38 38 39 39 40 41 42 43 44 45 46 48 49 50 51 52 53 54 56 57 58 59 60 60 59 58 57 57 56 57 58 59 60 61 61 62 62 63 63 64 64 65 66 66 67 67 67 67 67 67 66 65 63 62 62 62 62
12 12 12 14 15 16 17 19 20 22 23 24 25 26 27 28 28 29 30 31 32 33 34 35 36 37 38 38 39 40 41 42 43 45 46 47 48 49 50 51 52 53 54 55 56 57 58 58 58 59 58 57 56 55 55 55 55 55 55 56 56 57 57 56 56 57 57 58 59 60 61 61 62 63 64 66 67 67 67 67 66 65 64 63 62 60
Wind_Direction
226 227 226 226 224 224 222 222 223 223 220 217 215 215 215 217 219 225 229 229 229 232 235 237 236 235 236 235 236 239 240 240 240 239 240 240 241 242 243 244 247 248 250 251 254 258 261 264 269 270 268 266 262 261 262 257 258 247 222 224 229 229 234 224 219 236 244 249 252 250 250 248 245 244 249 256 262 271 280 286 288 287 287 286 284 281
225 224 223 223 224 224 223 224 227 227 225 223 220 220 221 220 222 227 230 231 231 232 235 237 237 238 239 237 236 237 239 239 240 241 241 241 241 240 240 241 244 246 247 249 252 257 261 264 267 269 269 263 257 256 252 242 247 246 234 232 230 228 229 225 231 241 244 249 251 250 249 246 243 244 249 256 264 273 281 287 288 288 287 286 286 283
222 221 221 223 224 225 225 224 226 227 226 225 223 224 225 224 227 232 234 234 234 233 236 237 238 239 238 236 237 237 239 240 241 242 239 235 233 232 233 236 240 243 244 247 251 255 260 263 263 263 263 257 249 246 239 235 240 241 237 233 227 223 225 231 238 241 245 248 247 248 249 246 246 248 252 258 265 274 282 287 289 289 288 286 286 285
220 221 223 225 225 226 227 224 225 226 225 224 224 225 226 226 229 233 235 235 236 236 237 237 236 237 237 237 237 238 239 239 239 238 233 228 226 225 226 230 235 240 242 246 250 253 259 262 260 256 247 238 234 230 229 232 234 238 239 234 228 226 231 240 243 244 247 249 250 252 254 254 254 255 259 262 267 276 284 288 288 288 288 286 283 282
221 224 226 226 226 227 228 227 226 226 225 223 223 222 224 227 226 228 233 234 236 237 234 233 233 235 236 235 234 234 233 232 229 226 225 225 224 221 223 228 234 239 242 244 248 252 257 259 256 248 231 225 224 222 227 233 235 238 238 233 235 239 242 246 248 249 250 253 255 258 260 262 261 262 265 266 270 279 287 289 284 282 284 284 281 279
225 225 224 225 226 226 227 229 228 227 225 222 220 220 224 227 226 230 235 235 236 235 229 226 227 233 235 230 228 224 221 222 221 220 222 224 222 221 224 229 234 238 241 243 244 247 253 254 250 234 223 232 237 230 234 240 239 241 241 239 244 247 246 247 250 252 252 254 256 257 260 261 262 264 266 267 272 278 285 286 279 275 277 278 276 275
224 222 223 225 227 227 228 229 228 226 224 222 219 219 223 227 229 233 235 232 231 229 225 220 218 226 230 228 225 219 215 216 216 218 221 220 218 219 220 222 228 233 235 236 236 238 246 250 249 243 238 246 248 239 240 243 244 246 245 242 243 244 245 247 249 251 251 251 252 252 254 256 258 261 264 266 270 275 281 284 280 272 271 273 272 271
224 223 223 225 226 226 225 225 224 221 219 221 219 219 223 226 229 232 232 228 224 221 219 215 214 220 226 228 226 221 219 218 217 217 217 214 210 209 210 215 221 223 225 227 228 233 240 243 243 245 252 258 254 245 241 242 243 243 241 240 241 242 244 245 245 246 246 245 245 247 248 251 255 259 263 266 270 276 281 284 286 277 270 270 272 273
223 223 222 222 222 220 220 219 218 215 214 217 218 218 220 222 226 229 229 227 224 221 216 214 218 221 223 227 224 222 224 220 217 213 208 206 202 201 208 213 216 217 220 225 227 231 236 237 236 238 244 248 246 242 240 241 241 238 236 236 238 239 239 238 237 238 238 238 239 242 245 249 255 260 265 269 275 280 283 285 287 284 276 270 271 274
223 224 222 221 220 217 219 218 216 214 214 216 217 218 220 222 225 227 227 227 226 224 218 217 220 216 217 224 221 219 224 221 216 209 204 204 203 206 213 215 215 217 222 230 233 232 233 235 234 233 234 235 237 238 238 236 235 235 236 238 244 245 238 233 230 228 230 233 236 241 245 250 256 262 267 274 280 284 285 284 283 283 280 274 272 273
229 228 227 225 223 222 223 221 218 218 218 219 219 220 223 223 226 228 227 228 227 225 223 222 222 215 214 223 223 218 222 224 220 213 209 209 211 216 222 223 222 222 227 235 238 236 236 238 239 237 233 233 236 238 238 237 235 237 242 246 253 256 248 242 233 225 225 231 236 243 247 252 257 263 270 276 282 286 284 282 280 279 278 276 273 273
234 234 233 231 229 227 227 226 225 223 222 223 223 223 225 225 227 228 227 229 229 227 226 223 224 223 216 222 227 218 215 222 222 217 215 215 218 223 225 228 231 233 237 242 244 246 247 250 254 249 240 240 244 245 245 244 239 238 244 246 251 254 247 242 236 232 235 235 237 246 252 256 262 265 272 278 283 285 282 280 279 278 278 277 275 274
238 238 237 235 233 229 228 227 228 227 224 225 225 222 223 223 223 223 225 230 231 230 228 221 223 227 220 223 231 220 211 217 221 222 221 222 224 224 224 228 235 242 247 250 254 260 264 268 272 268 252 247 253 257 251 241 233 236 243 241 240 237 231 231 230 233 239 237 238 248 254 258 263 266 272 278 281 281 279 277 276 277 278 278 277 276
238 239 237 235 234 231 228 227 229 231 230 231 229 225 223 221 222 224 226 232 232 232 234 228 227 229 226 228 233 226 216 218 222 226 228 231 230 226 226 229 236 244 250 253 259 269 274 275 277 276 260 249 256 265 258 243 236 239 242 239 235 231 230 231 227 227 238 247 248 254 258 260 263 267 271 274 277 276 274 273 273 274 276 278 280 279
234 237 239 238 237 234 230 229 229 229 231 232 228 226 223 220 223 226 226 231 235 235 238 236 232 232 231 233 234 231 226 223 225 229 232 235 234 231 232 235 238 245 251 256 262 269 275 277 277 273 260 250 254 263 267 263 253 246 243 241 237 234 234 235 229 230 247 259 258 259 260 261 264 268 271 271 271 269 267 268 268 269 271 276 280 278
232 235 237 238 238 236 232 231 229 226 228 232 231 229 225 223 227 231 230 232 236 237 238 237 236 236 236 237 235 231 230 229 230 233 235 236 237 237 238 240 242 245 250 256 261 266 270 274 274 267 257 252 256 262 268 272 265 254 247 241 236 237 242 241 236 240 253 260 258 257 257 259 263 265 267 266 264 262 261 263 264 266 270 276 278 275
233 236 239 239 238 236 233 233 231 226 225 231 238 237 233 233 236 238 241 241 240 242 243 240 240 241 240 241 239 235 234 234 235 236 238 239 240 242 242 243 245 246 249 254 259 264 266 268 268 261 252 254 261 265 266 271 267 252 246 243 240 245 251 249 244 245 252 255 251 252 254 255 255 251 253 256 255 254 255 260 264 267 271 274 272 269
228 233 238 236 234 234 233 234 235 231 226 227 236 241 241 243 243 239 240 244 243 244 245 243 243 245 243 242 241 238 237 237 237 238 240 242 243 245 245 246 247 248 251 255 260 264 264 265 265 262 260 258 261 263 263 272 269 245 244 251 250 254 255 250 245 241 240 240 241 247 246 238 236 245 253 253 251 252 255 259 264 266 270 271 269 267
224 226 233 234 233 233 232 233 236 237 233 227 230 237 238 240 246 245 242 245 248 249 249 248 249 249 246 243 240 236 235 236 237 239 241 243 245 246 247 248 248 249 252 255 258 260 259 260 258 259 266 264 261 261 261 271 266 241 246 262 260 258 253 241 237 233 230 233 238 240 231 224 240 257 255 251 250 253 256 261 266 268 271 273 272 266
224 223 229 235 234 233 233 233 233 238 240 235 232 234 234 234 240 246 245 245 248 250 251 253 252 248 243 240 239 235 235 237 238 241 243 245 248 250 250 251 250 250 251 252 253 254 256 259 254 251 258 260 260 261 260 266 262 246 253 266 257 246 233 222 224 228 229 232 232 232 231 234 245 245 241 243 248 253 258 265 270 271 272 274 274 268
225 222 226 234 235 232 233 233 231 233 238 239 238 237 237 238 239 242 244 242 239 241 246 249 249 245 240 239 240 236 234 236 237 240 243 245 248 250 250 251 251 250 249 248 249 249 251 257 254 247 250 252 253 257 258 261 260 256 259 259 245 238 238 235 233 230 228 228 228 230 232 234 236 234 235 240 244 251 260 266 269 269 271 273 274 274
228 226 226 232 235 233 233 234 232 231 233 234 237 238 238 239 240 243 246 244 239 238 240 244 247 245 239 236 237 234 232 234 235 237 239 241 244 246 247 249 249 249 249 247 247 248 248 252 255 250 246 246 247 253 258 261 260 259 258 250 242 245 248 239 228 222 220 221 223 224 226 228 232 235 238 240 243 249 257 263 265 266 270 273 275 277
230 228 227 231 233 233 235 235 233 234 233 231 232 233 232 232 235 239 242 243 241 239 239 241 245 245 237 232 233 233 232 234 235 236 237 239 242 245 247 248 249 248 247 245 245 247 249 251 254 252 248 248 249 254 261 263 260 256 249 241 240 243 237 222 211 209 211 214 219 223 227 231 233 234 236 238 240 244 249 256 261 263 267 272 276 279
229 226 227 231 233 235 238 237 235 236 234 231 232 232 230 231 234 235 235 238 239 238 237 238 241 241 235 231 232 231 230 230 231 234 236 239 242 246 248 249 249 247 245 243 244 247 251 254 256 256 255 255 256 259 262 262 259 255 248 242 241 237 226 220 215 211 213 218 223 227 230 233 235 236 236 237 239 242 246 251 256 258 259 263 272 278
230 228 228 228 232 237 239 238 238 238 234 233 235 235 233 233 236 236 236 238 238 236 235 235 238 239 233 230 232 230 227 226 226 230 235 238 241 245 247 247 246 245 244 244 246 249 253 257 259 261 263 262 261 262 261 257 254 253 250 245 240 234 229 228 226 225 226 227 229 231 233 235 236 236 236 237 240 243 247 250 253 255 256 260 269 276
236 234 231 229 230 232 235 238 240 241 240 239 239 238 236 236 237 237 238 239 240 239 238 235 237 237 229 225 229 229 227 227 228 232 236 239 241 243 244 246 244 243 242 242 243 246 249 253 255 256 257 257 256 257 256 253 249 247 245 241 236 235 236 237 238 238 236 234 235 236 237 237 236 235 236 239 242 245 249 252 254 255 258 263 269 274
241 238 235 233 232 230 232 237 239 239 242 243 242 239 237 236 236 237 237 239 241 242 241 237 235 238 235 229 230 231 229 230 231 234 238 240 241 243 245 247 246 245 244 242 241 241 242 245 247 246 245 246 247 248 249 249 246 243 242 243 244 243 243 242 243 242 241 240 240 241 242 240 237 237 239 243 248 252 256 258 260 261 263 266 270 274
246 242 237 236 237 234 234 236 235 234 235 238 241 240 239 238 237 237 237 238 238 238 239 236 234 238 240 237 235 235 235 235 237 238 239 239 240 241 243 245 246 247 247 244 242 241 240 241 242 242 242 243 244 243 244 245 246 246 247 249 251 251 250 249 248 247 246 246 246 247 247 244 243 245 248 253 256 258 260 261 263 264 265 266 268 271
249 247 241 239 238 237 237 236 234 232 231 233 235 237 237 237 237 237 237 238 237 234 235 237 236 237 240 241 239 238 238 239 241 241 240 239 238 239 242 243 245 246 246 244 242 241 241 241 242 244 247 250 250 247 245 245 247 250 251 253 254 255 256 257 258 257 257 257 257 257 255 253 253 254 256 259 261 262 263 264 265 266 266 266 267 268
250 249 246 242 239 237 236 236 233 230 231 234 236 236 236 236 236 237 237 238 239 237 237 238 239 238 240 240 240 240 240 241 242 242 241 241 240 240 241 243 244 245 245 245 243 242 243 244 245 247 250 252 253 250 248 247 248 251 253 255 257 258 260 262 263 265 266 267 267 266 265 264 262 261 262 262 263 264 265 266 267 268 269 269 269 269
250 249 248 246 246 245 242 238 234 230 231 234 236 237 237 238 238 239 239 240 241 242 241 242 242 242 241 241 241 241 242 242 242 242 242 242 242 242 242 243 244 245 245 245 245 245 245 247 250 252 253 253 252 249 248 248 249 251 253 254 255 257 258 260 262 264 266 267 267 268 267 267 267 266 266 266 266 267 267 268 268 269 270 271 271 271
247 246 249 251 253 253 252 250 242 236 235 235 236 237 238 239 240 241 242 243 243 244 244 244 244 244 243 243 243 243 244 244 245 244 244 243 244 244 244 244 244 243 243 244 246 247 249 250 252 254 256 256 255 253 251 251 252 253 255 256 256 256 257 258 259 261 262 263 264 264 265 265 266 266 266 266 267 267 268 268 269 269 269 270 271 271
251 253 258 261 260 258 255 254 253 247 242 240 239 241 242 242 241 241 242 243 244 245 246 246 245 245 244 243 244 244 244 245 246 247 247 247 248 249 249 248 245 243 242 244 246 248 250 253 254 256 257 258 259 259 259 258 258 258 259 260 260 260 260 259 260 260 261 261 262 262 263 264 264 265 265 265 266 267 268 269 269 268 268 269 269 270
257 259 262 261 260 258 254 251 251 249 246 244 244 245 246 246 246 246 245 245 246 246 246 246 246 245 244 243 243 243 244 245 246 247 247 248 249 251 252 251 248 246 247 249 250 251 252 254 255 256 256 258 260 261 262 263 263 262 262 262 261 261 261 261 262 262 262 262 262 263 263 264 264 265 265 266 267 268 268 267 265 266 268 269 269 269
254 254 256 257 256 255 251 247 247 247 248 249 246 245 245 245 246 247 247 247 248 248 247 246 246 244 243 243 243 242 243 243 244 245 246 247 249 250 251 249 247 249 253 255 254 254 255 255 255 255 257 259 261 262 262 263 263 263 264 264 263 263 263 263 264 264 264 265 266 267 267 266 266 266 266 266 266 267 266 263 262 265 269 270 269 269
251 248 249 252 251 250 249 249 249 248 251 251 248 245 245 245 245 244 243 242 243 244 245 244 243 243 242 243 243 243 243 241 239 238 239 243 247 250 251 250 249 253 259 261 258 255 254 254 254 256 259 261 262 262 262 263 263 264 265 266 266 266 267 267 268 268 269 270 271 271 270 269 268 267 266 265 264 264 262 262 264 268 270 270 268 267
252 248 247 248 249 250 252 254 253 251 250 251 251 249 247 246 245 244 243 240 239 239 239 240 241 241 242 242 243 243 244 243 239 236 234 236 240 244 247 249 250 252 255 257 257 255 254 255 257 260 261 262 262 262 262 263 264 265 265 267 268 269 270 271 272 272 273 273 273 272 271 270 269 269 268 266 265 264 263 264 266 268 269 268 267 268
254 253 251 252 254 254 255 256 256 254 252 252 254 254 250 247 246 246 245 244 242 241 241 242 243 244 245 246 246 247 247 246 243 241 239 238 238 239 240 243 246 247 246 244 245 248 249 251 254 256 258 260 261 261 261 262 263 265 267 269 271 272 272 273 273 274 274 274 273 271 271 270 270 270 269 268 267 266 264 265 265 266 266 267 268 269
256 257 257 257 256 256 257 258 258 256 254 252 252 251 250 248 246 246 246 245 245 245 245 245 246 247 247 249 250 251 251 250 249 248 246 245 244 244 243 244 246 249 248 245 245 247 248 249 250 251 252 255 258 260 263 265 266 268 270 272 273 273 273 273 274 274 274 274 273 271 270 269 268 268 268 268 267 265 263 263 263 264 265 266 268 270
253 254 255 256 255 256 257 257 254 253 253 252 250 248 246 246 245 245 246 246 245 246 247 247 247 248 249 251 253 253 253 253 252 251 250 249 249 249 248 249 250 251 251 251 251 252 253 254 255 256 257 258 259 261 264 266 268 269 270 271 272 272 272 273 273 273 273 273 272 271 270 269 268 267 267 266 266 264 263 263 264 265 265 267 268 269
251 251 250 250 251 252 253 253 251 250 250 250 249 246 244 244 244 243 245 245 245 246 247 249 250 252 254 256 258 258 257 256 254 253 253 252 252 252 251 252 252 253 253 254 254 254 254 255 257 258 259 260 261 262 264 265 267 268 268 269 269 270 270 271 272 272 272 272 271 271 270 269 268 268 267 267 266 265 264 264 265 265 266 266 266 266
250 249 248 248 247 247 249 250 251 250 248 248 249 249 249 249 248 247 248 248 247 247 249 252 255 258 260 260 260 259 258 257 256 255 254 254 254 254 254 254 254 255 255 256 256 256 256 257 258 259 260 261 262 263 265 266 267 267 268 268 269 269 270 270 270 270 271 271 271 271 270 270 269 269 268 268 268 267 267 266 266 265 265 264 264 263
249 249 248 248 248 247 248 249 250 251 251 251 252 254 255 255 254 254 255 254 254 253 254 256 258 259 260 260 260 259 258 257 257 256 256 256 256 256 256 256 256 256 257 257 258 258 259 259 260 261 261 262 263 264 265 266 267 268 268 269 269 270 270 270 270 270 270 270 270 270 271 270 270 270 270 270 269 269 269 268 268 267 266 265 263 262
249 248 248 248 248 248 248 249 250 251 252 252 253 254 255 256 256 256 255 256 256 257 257 257 257 257 257 257 257 258 258 258 258 258 258 258 258 258 258 258 258 258 259 259 260 261 262 263 263 264 264 265 265 265 266 266 266 267 268 268 269 270 270 270 270 270 270 270 270 270 270 270 270 270 270 270 270 269 269 269 269 268 267 266 264 263
250 249 249 249 248 248 248 249 251 252 252 252 253 254 255 256 258 258 258 257 258 258 258 258 257 257 256 256 256 257 257 258 258 259 259 259 259 260 260 260 260 261 261 262 262 263 263 264 265 265 265 266 266 266 266 266 266 267 268 268 269 269 269 269 270 270 270 270 270 269 269 269 269 269 269 270 270 269 269 268 268 267 266 266 266 265
252 251 250 250 249 249 249 250 251 251 252 252 253 254 255 256 257 259 259 259 259 259 259 259 258 258 258 257 257 257 257 258 259 259 260 260 261 261 262 262 262 263 263 263 264 264 265 265 266 266 267 267 267 268 268 268 268 268 268 268 269 269 268 268 268 269 269 269 269 269 269 269 268 268 268 268 268 268 267 267 267 266 265 265 265 264
253 252 251 250 250 250 250 251 251 251 252 252 253 254 255 256 257 258 259 259 260 260 260 260 260 261 260 260 260 260 260 261 261 261 262 262 262 262 262 263 263 263 264 264 265 265 266 266 266 266 266 267 267 267 267 267 268 268 268 268 268 269 269 269 269 269 270 270 270 270 269 269 268 268 267 267 266 266 265 264 264 263 263 262 262 261
254 253 253 252 251 251 251 251 252 252 253 253 254 255 255 256 257 258 259 259 259 260 260 260 261 261 262 262 262 262 262 262 262 263 263 263 264 264 264 264 264 264 265 265 266 266 267 268 268 269 269 269 270 270 271 271 272 273 273 273 273 273 273 273 272 272 271 270 270 269 269 268 268 267 266 265 264 264 263 262 261 260 260 259 258 258
257 256 255 255 255 255 254 253 253 254 255 255 256 257 257 258 259 260 260 261 261 262 263 263 264 265 265 266 266 266 267 267 267 267 268 268 269 270 270 270 270 271 271 271 271 272 273 274 274 275 275 276 277 277 277 278 278 278 278 278 277 277 276 275 275 274 273 272 271 270 269 268 267 266 265 264 263 262 262 261 260 258 258 257 256 255
261 260 258 258 257 257 256 256 255 255 256 256 256 257 258 258 259 259 260 259 260 260 261 262 263 264 264 264 264 265 265 266 265 265 266 266 266 267 267 268 269 270 271 272 272 273 274 274 275 275 276 277 277 278 278 278 278 279 279 278 278 277 277 276 275 275 274 273 271 270 269 268 267 265 264 263 262 261 260 259 259 258 256 255 255 254
265 264 261 259 259 258 259 259 257 257 257 257 256 256 256 256 257 257 257 257 257 257 258 258 258 259 259 259 260 261 261 262 262 262 263 264 265 265 266 267 268 269 270 271 272 273 273 274 274 275 276 276 277 278 279 279 279 279 278 278 277 277 276 276 275 275 274 273 272 271 270 269 267 266 265 264 262 261 260 259 258 256 255 254 253 252
Height
5731 5731 5732 5733 5734 5735 5736 5737 5738 5740 5742 5745 5747 5749 5751 5753 5755 5755 5755 5757 5759 5760 5762 5763 5765 5766 5767 5768 5769 5769 5770 5772 5773 5774 5775 5777 5778 5779 5779 5780 5780 5780 5782 5783 5782 5781 5781 5780 5780 5780 5781 5782 5783 5784 5785 5786 5787 5785 5784 5785 5785 5785 5784 5782 5783 5784 5785 5786 5787 5788 5789 5789 5789 5789 5789 5790 5790 5790 5790 5790 5790 5790 5790 5789 5789 5789
5729 5729 5730 5730 5731 5732 5734 5735 5737 5739 5741 5743 5746 5747 5749 5751 5752 5752 5753 5755 5757 5758 5759 5760 5762 5763 5764 5765 5766 5767 5768 5769 5770 5772 5773 5774 5775 5776 5777 5777 5777 5779 5780 5781 5781 5780 5779 5778 5778 5779 5780 5780 5780 5782 5783 5784 5785 5783 5781 5784 5784 5783 5783 5783 5783 5783 5784 5785 5786 5787 5788 5788 5788 5788 5789 5789 5789 5789 5789 5789 5788 5788 5788 5788 5787 5787
5727 5727 5728 5728 5730 5731 5732 5734 5735 5737 5739 5741 5744 5745 5747 5749 5750 5750 5751 5753 5754 5756 5757 5758 5760 5760 5761 5762 5763 5764 5765 5766 5768 5769 5770 5771 5772 5773 5774 5775 5775 5777 5778 5779 5779 5778 5777 5776 5777 5778 5778 5778 5778 5779 5780 5781 5783 5782 5779 5782 5782 5782 5783 5783 5782 5782 5783 5784 5785 5786 5786 5787 5787 5787 5788 5788 5787 5787 5787 5787 5786 5786 5786 5786 5786 5785
5724 5725 5726 5727 5729 5730 5731 5732 5733 5735 5737 5739 5741 5743 5745 5746 5747 5748 5749 5750 5751 5753 5755 5756 5757 5757 5758 5759 5760 5762 5763 5764 5765 5766 5767 5768 5769 5770 5772 5773 5774 5776 5777 5777 5777 5776 5776 5775 5775 5775 5775 5774 5774 5776 5777 5778 5781 5781 5779 5779 5780 5780 5781 5781 5780 5781 5781 5783 5783 5784 5785 5786 5786 5786 5786 5786 5786 5786 5785 5785 5785 5785 5785 5785 5784 5784
5722 5723 5725 5726 5727 5728 5729 5731 5732 5733 5735 5737 5739 5741 5742 5743 5745 5745 5745 5747 5749 5751 5753 5754 5754 5754 5755 5757 5758 5759 5760 5761 5763 5764 5765 5766 5767 5769 5770 5772 5773 5774 5775 5775 5775 5775 5774 5773 5773 5773 5774 5773 5771 5773 5775 5776 5779 5780 5779 5779 5777 5777 5779 5779 5779 5779 5780 5781 5782 5783 5784 5784 5785 5785 5785 5785 5785 5784 5784 5784 5784 5783 5783 5783 5783 5783
5720 5722 5723 5724 5726 5727 5728 5729 5731 5732 5734 5735 5737 5738 5739 5740 5742 5742 5743 5746 5748 5749 5750 5751 5752 5752 5753 5754 5756 5757 5758 5759 5761 5762 5763 5765 5766 5768 5770 5771 5772 5773 5773 5773 5773 5773 5772 5772 5771 5771 5774 5773 5770 5770 5773 5774 5776 5778 5778 5778 5776 5775 5776 5776 5776 5777 5778 5779 5780 5781 5781 5782 5782 5783 5783 5783 5783 5783 5783 5783 5783 5782 5782 5782 5782 5782
5719 5721 5722 5723 5724 5725 5727 5728 5729 5731 5732 5733 5735 5736 5737 5738 5739 5740 5742 5745 5746 5747 5748 5749 5750 5751 5751 5753 5754 5755 5756 5758 5759 5760 5762 5763 5765 5767 5769 5770 5771 5772 5772 5772 5772 5772 5771 5771 5770 5771 5773 5772 5768 5769 5771 5772 5774 5775 5775 5776 5774 5773 5773 5773 5774 5774 5776 5777 5777 5778 5779 5780 5780 5780 5780 5780 5781 5781 5781 5781 5781 5781 5781 5780 5781 5781
5717 5719 5720 5721 5723 5724 5725 5726 5727 5729 5730 5731 5732 5733 5734 5736 5737 5739 5740 5743 5745 5745 5746 5747 5749 5750 5750 5751 5752 5754 5755 5756 5757 5759 5760 5762 5764 5766 5767 5769 5770 5770 5771 5771 5770 5770 5770 5770 5770 5770 5771 5770 5768 5768 5770 5770 5771 5772 5772 5772 5772 5772 5771 5770 5770 5771 5773 5774 5775 5775 5776 5777 5778 5778 5778 5779 5779 5779 5779 5780 5780 5780 5779 5779 5779 5779
5715 5716 5718 5719 5721 5722 5723 5724 5725 5727 5728 5729 5730 5731 5732 5734 5735 5737 5739 5741 5742 5743 5745 5746 5747 5749 5749 5749 5751 5752 5753 5754 5755 5756 5758 5760 5762 5764 5766 5767 5768 5768 5769 5769 5769 5769 5769 5770 5770 5769 5769 5768 5768 5769 5769 5768 5767 5767 5768 5769 5769 5768 5767 5766 5767 5768 5770 5771 5772 5773 5774 5775 5776 5776 5776 5777 5777 5777 5778 5778 5778 5778 5778 5778 5777 5777
5713 5714 5716 5717 5719 5720 5721 5722 5723 5725 5726 5727 5728 5729 5731 5732 5734 5735 5737 5739 5740 5742 5743 5743 5745 5748 5748 5747 5749 5751 5751 5751 5752 5754 5757 5759 5761 5762 5763 5764 5765 5766 5766 5767 5767 5767 5768 5768 5769 5769 5769 5769 5768 5767 5764 5763 5763 5764 5766 5767 5767 5766 5765 5765 5765 5766 5768 5770 5770 5771 5772 5773 5774 5774 5775 5775 5775 5776 5776 5776 5777 5777 5777 5776 5776 5776
5711 5712 5714 5715 5717 5718 5719 5720 5721 5723 5724 5725 5726 5728 5730 5731 5733 5734 5736 5737 5738 5740 5741 5741 5743 5746 5747 5746 5747 5748 5750 5750 5752 5754 5756 5757 5759 5760 5761 5762 5763 5764 5764 5764 5765 5765 5766 5767 5768 5768 5769 5768 5765 5761 5758 5758 5761 5764 5766 5766 5767 5769 5769 5768 5766 5766 5767 5768 5769 5769 5770 5771 5772 5772 5773 5773 5774 5774 5774 5774 5775 5775 5775 5775 5775 5774
5709 5711 5712 5713 5715 5716 5717 5718 5720 5721 5723 5724 5725 5727 5729 5730 5731 5733 5735 5735 5737 5738 5738 5740 5741 5743 5746 5745 5744 5746 5748 5750 5751 5753 5755 5756 5758 5759 5760 5761 5761 5762 5762 5762 5763 5764 5765 5766 5767 5767 5767 5765 5760 5756 5756 5758 5762 5765 5766 5765 5765 5767 5768 5768 5768 5768 5767 5767 5767 5768 5769 5770 5771 5771 5771 5772 5772 5772 5772 5772 5772 5772 5773 5773 5773 5773
5707 5709 5710 5711 5713 5714 5715 5717 5718 5719 5721 5722 5724 5726 5727 5729 5730 5731 5732 5733 5735 5736 5736 5738 5739 5741 5743 5742 5742 5745 5747 5749 5750 5752 5753 5755 5756 5758 5759 5760 5760 5761 5761 5761 5761 5762 5763 5764 5764 5765 5765 5760 5755 5755 5757 5759 5761 5763 5763 5762 5761 5762 5762 5763 5765 5766 5767 5766 5766 5766 5767 5768 5769 5769 5769 5770 5770 5770 5770 5770 5770 5770 5770 5770 5770 5770
5705 5706 5708 5709 5710 5712 5713 5715 5716 5718 5720 5721 5723 5724 5726 5727 5728 5729 5731 5731 5733 5733 5734 5736 5737 5739 5740 5739 5740 5743 5745 5747 5749 5750 5752 5753 5755 5756 5757 5758 5759 5759 5759 5759 5760 5760 5761 5761 5761 5761 5760 5756 5751 5753 5758 5761 5760 5759 5758 5759 5759 5760 5761 5761 5761 5763 5764 5765 5765 5765 5765 5766 5766 5767 5767 5768 5768 5768 5767 5767 5768 5768 5768 5768 5768 5768
5703 5704 5705 5707 5708 5709 5711 5713 5715 5716 5718 5719 5721 5722 5724 5725 5726 5727 5729 5729 5730 5731 5731 5733 5735 5736 5737 5736 5738 5742 5743 5745 5747 5748 5750 5751 5752 5754 5755 5756 5756 5757 5757 5757 5758 5759 5758 5758 5758 5757 5756 5753 5750 5750 5755 5760 5760 5758 5757 5758 5758 5760 5760 5760 5760 5760 5762 5763 5763 5763 5763 5763 5764 5765 5765 5766 5766 5766 5765 5765 5766 5766 5766 5766 5766 5766
5701 5702 5703 5704 5705 5707 5709 5711 5712 5714 5716 5717 5718 5720 5721 5722 5723 5724 5726 5727 5728 5729 5729 5730 5732 5733 5734 5735 5737 5739 5741 5743 5745 5746 5747 5748 5750 5751 5752 5753 5753 5754 5755 5755 5756 5756 5756 5755 5754 5753 5753 5753 5750 5748 5751 5755 5757 5756 5757 5758 5758 5759 5759 5758 5759 5760 5760 5761 5761 5761 5761 5761 5761 5763 5763 5764 5764 5763 5763 5763 5764 5764 5764 5764 5764 5764
5699 5700 5700 5702 5703 5704 5706 5708 5709 5712 5714 5714 5716 5717 5718 5720 5721 5722 5723 5724 5725 5726 5726 5727 5728 5730 5731 5733 5734 5737 5738 5740 5741 5743 5744 5745 5746 5747 5748 5749 5750 5751 5751 5752 5752 5753 5752 5751 5750 5749 5751 5751 5748 5746 5747 5750 5751 5752 5754 5755 5756 5756 5756 5756 5756 5757 5758 5758 5758 5758 5758 5759 5760 5761 5761 5762 5762 5761 5761 5761 5762 5762 5761 5762 5762 5762
5696 5698 5698 5699 5700 5702 5704 5705 5706 5709 5711 5712 5714 5714 5716 5718 5718 5720 5721 5721 5722 5724 5724 5725 5726 5727 5728 5729 5731 5733 5735 5736 5738 5739 5740 5741 5742 5743 5745 5746 5746 5747 5748 5748 5749 5749 5749 5747 5746 5746 5748 5748 5745 5743 5745 5747 5747 5748 5750 5752 5753 5753 5753 5753 5753 5754 5755 5755 5756 5756 5757 5757 5758 5759 5760 5760 5760 5760 5760 5760 5760 5759 5759 5759 5760 5760
5693 5695 5695 5695 5697 5699 5701 5702 5704 5705 5707 5709 5711 5712 5714 5715 5715 5716 5718 5719 5720 5721 5721 5722 5723 5725 5726 5726 5727 5729 5730 5732 5734 5735 5736 5737 5738 5739 5740 5741 5743 5744 5744 5745 5745 5745 5744 5741 5741 5744 5745 5745 5743 5743 5744 5745 5745 5746 5747 5748 5749 5749 5750 5750 5751 5752 5753 5753 5754 5755 5755 5756 5757 5758 5758 5758 5758 5758 5758 5758 5758 5757 5757 5757 5758 5758
5690 5692 5692 5693 5695 5696 5698 5699 5701 5702 5703 5706 5708 5709 5711 5712 5713 5714 5715 5716 5718 5719 5719 5719 5720 5722 5722 5722 5723 5725 5727 5728 5729 5730 5731 5732 5733 5735 5735 5736 5738 5739 5740 5741 5741 5740 5739 5737 5740 5744 5743 5742 5742 5742 5742 5742 5742 5743 5744 5746 5747 5747 5747 5748 5748 5750 5751 5751 5752 5752 5753 5754 5755 5756 5756 5757 5757 5756 5756 5756 5755 5755 5756 5756 5756 5757
5686 5688 5690 5690 5691 5694 5695 5696 5698 5700 5701 5702 5704 5706 5707 5709 5711 5711 5712 5714 5715 5716 5716 5717 5718 5718 5718 5718 5720 5722 5724 5725 5726 5726 5727 5728 5729 5730 5731 5732 5733 5734 5735 5736 5736 5736 5735 5735 5739 5742 5741 5739 5740 5740 5739 5739 5740 5740 5741 5743 5745 5744 5744 5745 5746 5746 5748 5748 5749 5750 5751 5752 5752 5753 5754 5754 5754 5754 5754 5754 5753 5753 5754 5754 5755 5755
5683 5685 5687 5688 5689 5692 5692 5693 5695 5696 5698 5699 5701 5703 5705 5707 5708 5709 5709 5711 5712 5713 5714 5714 5715 5715 5715 5716 5717 5719 5720 5721 5722 5723 5724 5724 5725 5726 5726 5727 5729 5730 5731 5732 5732 5732 5732 5733 5735 5738 5737 5737 5737 5737 5737 5737 5737 5737 5737 5738 5740 5740 5740 5742 5743 5743 5744 5745 5746 5747 5748 5749 5750 5750 5751 5751 5752 5752 5752 5752 5752 5752 5752 5753 5753 5754
5680 5682 5684 5685 5687 5688 5688 5690 5692 5693 5695 5697 5698 5700 5702 5704 5705 5706 5707 5708 5709 5710 5711 5712 5712 5712 5712 5713 5714 5716 5717 5718 5719 5719 5720 5720 5721 5722 5723 5724 5725 5726 5727 5729 5729 5729 5729 5731 5732 5734 5734 5735 5735 5735 5735 5734 5733 5733 5733 5733 5735 5736 5737 5739 5740 5741 5742 5743 5744 5745 5746 5747 5748 5748 5748 5749 5749 5749 5749 5749 5750 5750 5750 5751 5751 5751
5676 5678 5679 5681 5683 5683 5685 5687 5688 5689 5692 5693 5694 5696 5698 5700 5701 5702 5704 5705 5705 5706 5708 5709 5709 5709 5710 5711 5712 5713 5714 5715 5716 5716 5716 5717 5718 5718 5719 5720 5722 5723 5724 5725 5725 5726 5726 5727 5728 5729 5729 5730 5731 5732 5731 5730 5730 5730 5730 5731 5732 5733 5735 5736 5738 5739 5740 5741 5742 5743 5744 5745 5746 5746 5746 5746 5747 5747 5747 5747 5747 5748 5748 5749 5749 5749
5673 5674 5676 5678 5680 5681 5682 5683 5684 5686 5688 5689 5691 5692 5694 5696 5698 5699 5700 5702 5702 5703 5704 5706 5706 5706 5707 5709 5709 5711 5712 5712 5713 5713 5714 5714 5715 5716 5716 5717 5719 5720 5721 5722 5723 5723 5724 5724 5724 5725 5725 5726 5727 5728 5728 5728 5728 5728 5728 5729 5730 5731 5733 5734 5736 5737 5738 5740 5741 5742 5743 5743 5744 5744 5744 5744 5744 5744 5744 5745 5745 5746 5746 5746 5747 5747
5669 5671 5673 5675 5676 5677 5678 5679 5680 5682 5684 5685 5687 5689 5691 5692 5694 5695 5697 5699 5699 5700 5701 5703 5703 5703 5704 5705 5706 5708 5709 5710 5711 5711 5712 5712 5713 5713 5714 5715 5716 5717 5719 5719 5720 5721 5721 5722 5722 5723 5723 5724 5725 5725 5726 5726 5726 5726 5726 5727 5728 5730 5731 5732 5733 5734 5736 5737 5738 5739 5740 5741 5741 5741 5741 5741 5741 5742 5742 5743 5743 5743 5744 5744 5745 5745
5665 5667 5669 5670 5671 5672 5673 5674 5677 5679 5680 5682 5684 5685 5687 5688 5690 5692 5693 5695 5695 5696 5698 5699 5699 5700 5701 5702 5704 5705 5706 5707 5708 5709 5709 5710 5710 5711 5712 5713 5714 5715 5716 5717 5717 5718 5719 5720 5720 5721 5722 5723 5723 5723 5724 5724 5724 5724 5725 5725 5726 5727 5728 5730 5731 5732 5733 5734 5735 5736 5736 5737 5738 5738 5738 5739 5739 5740 5740 5741 5741 5741 5741 5742 5742 5742
5662 5663 5665 5666 5667 5668 5669 5671 5673 5675 5677 5678 5680 5682 5683 5685 5686 5688 5689 5691 5692 5693 5694 5695 5695 5697 5698 5699 5701 5702 5703 5704 5705 5706 5707 5707 5708 5709 5709 5710 5711 5712 5713 5714 5715 5715 5716 5717 5718 5719 5720 5720 5721 5721 5722 5722 5722 5722 5723 5723 5723 5724 5725 5726 5727 5728 5729 5730 5731 5732 5732 5733 5734 5735 5736 5736 5737 5737 5738 5738 5738 5738 5738 5739 5739 5739
5659 5660 5661 5662 5663 5664 5665 5667 5670 5671 5672 5674 5676 5678 5679 5681 5682 5684 5685 5686 5688 5689 5690 5690 5692 5694 5695 5696 5698 5699 5700 5701 5702 5703 5704 5705 5705 5706 5707 5707 5708 5709 5710 5711 5712 5713 5713 5714 5715 5716 5717 5717 5718 5719 5719 5720 5720 5720 5720 5720 5720 5721 5722 5722 5723 5724 5725 5726 5727 5728 5729 5730 5731 5732 5732 5733 5733 5734 5734 5734 5735 5735 5735 5735 5736 5736
5656 5657 5658 5659 5659 5660 5661 5663 5665 5667 5668 5670 5671 5673 5675 5676 5678 5680 5681 5682 5683 5685 5686 5687 5688 5690 5692 5693 5695 5696 5697 5698 5699 5700 5701 5702 5703 5703 5704 5705 5705 5706 5707 5708 5709 5709 5710 5711 5712 5713 5713 5714 5715 5716 5716 5717 5717 5717 5717 5717 5718 5718 5718 5719 5719 5720 5720 5721 5722 5723 5724 5725 5726 5727 5728 5729 5729 5730 5730 5731 5731 5731 5731 5731 5731 5731
5653 5653 5654 5655 5656 5657 5658 5659 5661 5663 5664 5665 5667 5668 5670 5672 5674 5676 5677 5679 5680 5681 5682 5683 5685 5686 5688 5689 5691 5692 5693 5695 5696 5696 5697 5698 5699 5700 5700 5701 5702 5702 5703 5704 5705 5705 5706 5707 5708 5709 5709 5710 5711 5712 5713 5713 5714 5714 5714 5714 5715 5715 5715 5715 5716 5716 5716 5717 5718 5719 5719 5720 5721 5722 5723 5724 5724 5725 5725 5726 5726 5726 5726 5726 5726 5726
5649 5650 5651 5652 5653 5653 5655 5656 5657 5659 5660 5661 5662 5664 5666 5668 5670 5671 5673 5674 5676 5677 5678 5680 5681 5682 5684 5685 5687 5688 5690 5691 5692 5693 5693 5694 5695 5695 5696 5696 5696 5697 5698 5699 5700 5701 5702 5703 5704 5705 5705 5706 5707 5707 5708 5709 5709 5710 5710 5710 5711 5711 5711 5712 5712 5713 5713 5713 5714 5714 5715 5715 5716 5717 5718 5718 5719 5719 5720 5720 5720 5721 5721 5721 5721 5721
5646 5647 5648 5649 5650 5650 5651 5652 5653 5655 5656 5657 5659 5661 5662 5663 5665 5667 5668 5670 5671 5673 5674 5675 5677 5678 5679 5681 5682 5684 5685 5686 5688 5689 5690 5690 5691 5691 5690 5689 5690 5691 5692 5694 5695 5696 5697 5698 5699 5700 5701 5701 5702 5703 5703 5704 5705 5705 5706 5706 5706 5707 5707 5707 5708 5708 5708 5708 5709 5709 5710 5710 5711 5711 5712 5713 5713 5714 5714 5714 5714 5714 5715 5716 5716 5716
5643 5644 5645 5646 5647 5647 5648 5649 5650 5651 5652 5654 5657 5658 5658 5659 5660 5662 5664 5665 5667 5668 5669 5670 5672 5673 5674 5676 5678 5679 5680 5682 5683 5685 5686 5687 5687 5687 5686 5687 5687 5687 5688 5689 5690 5690 5691 5692 5693 5694 5695 5696 5697 5698 5698 5698 5699 5700 5700 5701 5701 5701 5701 5701 5702 5702 5702 5702 5703 5703 5704 5704 5705 5705 5706 5706 5707 5707 5707 5707 5708 5708 5709 5710 5710 5710
5640 5641 5642 5643 5643 5643 5645 5646 5646 5647 5649 5651 5653 5653 5654 5655 5656 5657 5659 5660 5662 5663 5665 5666 5667 5668 5669 5671 5672 5674 5675 5677 5678 5679 5681 5682 5683 5683 5683 5685 5685 5684 5683 5685 5685 5686 5687 5687 5688 5688 5689 5690 5691 5692 5692 5692 5693 5693 5694 5694 5695 5695 5695 5695 5695 5696 5696 5696 5696 5697 5697 5698 5698 5698 5699 5699 5700 5701 5701 5701 5701 5702 5703 5704 5704 5705
5636 5637 5638 5639 5639 5640 5642 5642 5643 5644 5646 5647 5648 5649 5650 5651 5652 5653 5654 5656 5657 5659 5660 5661 5663 5664 5665 5666 5667 5668 5669 5671 5673 5674 5675 5677 5678 5679 5679 5681 5681 5680 5679 5679 5680 5680 5681 5682 5682 5683 5683 5684 5685 5685 5686 5686 5686 5687 5687 5688 5688 5688 5689 5689 5689 5689 5690 5690 5690 5690 5690 5690 5691 5691 5692 5693 5693 5694 5694 5695 5695 5696 5696 5697 5698 5699
5631 5632 5634 5635 5636 5637 5638 5638 5639 5641 5642 5643 5644 5645 5646 5647 5648 5649 5650 5651 5653 5654 5655 5657 5658 5659 5660 5661 5663 5664 5665 5666 5668 5669 5670 5671 5673 5674 5675 5676 5676 5676 5677 5676 5675 5675 5676 5677 5677 5677 5677 5677 5678 5678 5678 5679 5679 5679 5680 5681 5681 5682 5682 5682 5682 5683 5683 5683 5683 5683 5683 5683 5684 5684 5685 5686 5686 5687 5688 5688 5689 5689 5690 5691 5691 5692
5627 5628 5630 5631 5632 5633 5634 5634 5636 5637 5638 5639 5641 5641 5642 5643 5644 5645 5646 5647 5649 5650 5651 5652 5653 5655 5656 5657 5658 5659 5660 5660 5662 5664 5665 5667 5668 5669 5670 5670 5669 5670 5672 5672 5671 5671 5672 5672 5672 5672 5671 5671 5671 5671 5671 5672 5672 5673 5673 5674 5674 5675 5675 5676 5676 5675 5675 5676 5676 5676 5677 5677 5677 5677 5678 5679 5679 5680 5680 5681 5682 5682 5682 5683 5684 5685
5623 5623 5625 5627 5627 5629 5630 5630 5631 5632 5634 5635 5636 5637 5638 5638 5639 5640 5641 5643 5645 5646 5647 5648 5649 5650 5652 5652 5653 5654 5654 5655 5657 5659 5660 5661 5662 5663 5663 5663 5663 5664 5665 5666 5666 5666 5666 5666 5667 5667 5666 5665 5665 5665 5665 5665 5666 5666 5667 5667 5667 5667 5668 5668 5668 5668 5668 5668 5669 5669 5669 5670 5670 5670 5671 5671 5672 5673 5673 5674 5674 5675 5675 5676 5676 5677
5618 5619 5620 5622 5623 5624 5625 5626 5626 5627 5629 5631 5631 5632 5633 5634 5635 5636 5637 5639 5641 5642 5642 5644 5645 5646 5647 5648 5649 5649 5649 5650 5652 5653 5654 5655 5656 5657 5657 5657 5657 5658 5658 5659 5659 5660 5660 5660 5660 5660 5660 5659 5659 5659 5659 5659 5659 5659 5659 5660 5660 5660 5660 5661 5660 5660 5660 5660 5660 5660 5661 5661 5662 5662 5663 5663 5664 5665 5665 5666 5667 5667 5668 5668 5668 5669
5613 5615 5616 5617 5618 5619 5620 5621 5622 5623 5625 5626 5627 5627 5628 5629 5630 5631 5632 5635 5636 5636 5637 5639 5639 5640 5642 5643 5643 5644 5644 5645 5646 5647 5648 5649 5649 5650 5651 5651 5651 5651 5651 5652 5652 5652 5652 5652 5652 5652 5652 5652 5652 5652 5652 5652 5652 5652 5652 5652 5652 5652 5652 5652 5652 5652 5652 5652 5652 5652 5652 5652 5652 5653 5653 5654 5655 5656 5657 5657 5658 5659 5659 5660 5660 5661
5609 5610 5611 5612 5613 5615 5616 5617 5617 5618 5620 5622 5622 5623 5624 5625 5625 5627 5628 5630 5631 5631 5632 5633 5634 5635 5636 5637 5637 5638 5638 5639 5640 5641 5641 5642 5642 5643 5644 5644 5644 5644 5644 5645 5645 5645 5645 5645 5645 5645 5645 5645 5645 5644 5644 5644 5644 5643 5643 5643 5643 5643 5643 5644 5644 5643 5643 5643 5643 5643 5643 5643 5643 5643 5643 5644 5644 5645 5646 5647 5648 5649 5650 5651 5652 5652
5604 5605 5606 5607 5608 5610 5611 5611 5611 5612 5615 5616 5616 5617 5618 5619 5620 5622 5623 5624 5625 5625 5627 5627 5628 5629 5629 5630 5631 5631 5632 5633 5633 5634 5634 5635 5635 5636 5636 5637 5637 5637 5637 5637 5637 5637 5637 5637 5637 5637 5637 5637 5637 5636 5636 5636 5635 5635 5635 5634 5634 5634 5634 5635 5634 5634 5634 5634 5633 5633 5633 5633 5633 5633 5634 5634 5634 5635 5636 5637 5638 5639 5640 5642 5643 5644
5599 5600 5601 5601 5603 5604 5605 5605 5605 5607 5609 5609 5610 5611 5612 5613 5614 5616 5617 5618 5619 5620 5620 5621 5622 5623 5623 5624 5624 5625 5625 5626 5626 5627 5627 5628 5628 5629 5629 5630 5630 5630 5630 5630 5630 5630 5630 5630 5629 5629 5629 5629 5628 5628 5628 5627 5627 5627 5627 5626 5626 5626 5626 5625 5625 5625 5624 5624 5624 5623 5623 5623 5623 5623 5624 5624 5624 5626 5626 5627 5628 5630 5631 5632 5633 5635
5593 5594 5595 5596 5597 5598 5599 5599 5600 5602 5603 5603 5604 5605 5606 5606 5608 5609 5610 5611 5612 5613 5614 5615 5616 5616 5617 5618 5618 5619 5619 5619 5620 5620 5620 5621 5621 5622 5622 5622 5622 5623 5623 5623 5623 5623 5623 5622 5622 5621 5621 5620 5620 5619 5619 5619 5618 5618 5618 5617 5617 5617 5617 5616 5616 5616 5615 5615 5614 5614 5613 5613 5613 5613 5614 5614 5614 5615 5616 5617 5619 5621 5622 5622 5623 5625
5587 5588 5589 5590 5591 5592 5593 5594 5595 5596 5597 5598 5598 5599 5600 5600 5601 5602 5603 5604 5605 5606 5607 5608 5608 5609 5610 5611 5611 5612 5612 5613 5613 5613 5613 5614 5614 5614 5614 5614 5615 5615 5615 5615 5615 5615 5614 5613 5613 5613 5612 5611 5611 5610 5610 5609 5609 5609 5609 5609 5608 5608 5607 5607 5606 5606 5606 5605 5604 5603 5603 5603 5603 5603 5603 5604 5604 5605 5606 5607 5608 5610 5612 5613 5614 5616
5582 5583 5584 5585 5586 5587 5588 5588 5590 5590 5591 5592 5593 5593 5594 5595 5596 5596 5597 5597 5598 5599 5600 5600 5601 5602 5603 5604 5604 5605 5606 5606 5606 5606 5606 5606 5606 5606 5607 5606 5606 5607 5607 5606 5606 5606 5606 5605 5604 5604 5604 5603 5602 5602 5601 5601 5600 5600 5600 5600 5599 5598 5598 5597 5596 5596 5595 5594 5593 5592 5592 5591 5591 5592 5592 5592 5593 5593 5594 5596 5598 5599 5601 5604 5605 5606
5578 5578 5579 5580 5581 5582 5583 5583 5584 5585 5586 5587 5587 5588 5589 5590 5590 5591 5591 5592 5592 5593 5594 5594 5595 5596 5596 5597 5597 5598 5599 5599 5599 5598 5598 5598 5598 5598 5599 5598 5599 5599 5599 5598 5598 5598 5597 5597 5596 5595 5595 5594 5594 5593 5592 5592 5591 5591 5590 5590 5589 5588 5587 5586 5585 5584 5584 5583 5582 5582 5581 5580 5580 5580 5580 5581 5581 5581 5582 5584 5586 5588 5591 5594 5596 5597
5574 5575 5575 5576 5577 5577 5578 5578 5579 5580 5580 5581 5582 5583 5583 5584 5585 5585 5586 5586 5586 5587 5588 5588 5589 5589 5590 5590 5590 5591 5591 5591 5591 5591 5590 5590 5590 5590 5590 5590 5590 5590 5590 5590 5590 5589 5589 5588 5587 5587 5586 5585 5585 5584 5583 5583 5582 5581 5580 5580 5579 5577 5576 5575 5574 5573 5572 5571 5571 5570 5570 5569 5569 5569 5568 5569 5570 5570 5571 5572 5575 5577 5580 5582 5584 5586
5572 5572 5572 5573 5573 5573 5573 5574 5575 5575 5576 5576 5577 5578 5578 5579 5579 5580 5580 5581 5581 5582 5582 5583 5583 5584 5584 5584 5585 5585 5585 5585 5585 5585 5584 5584 5584 5584 5584 5584 5583 5583 5583 5583 5582 5582 5581 5580 5579 5579 5578 5577 5576 5575 5575 5574 5573 5572 5571 5570 5568 5567 5565 5564 5563 5562 5561 5560 5559 5558 5558 5557 5557 5557 5556 5557 5558 5558 5559 5561 5563 5566 5569 5571 5573 5576
5570 5570 5570 5570 5570 5570 5570 5570 5571 5571 5571 5572 5572 5573 5573 5574 5574 5575 5575 5576 5576 5577 5577 5578 5578 5578 5579 5579 5579 5580 5580 5580 5579 5579 5578 5578 5578 5578 5577 5577 5577 5576 5576 5575 5575 5574 5573 5572 5571 5570 5569 5569 5568 5567 5567 5566 5565 5563 5562 5560 5558 5556 5555 5554 5553 5552 5550 5549 5547 5547 5546 5546 5545 5545 5544 5545 5546 5546 5547 5549 5552 5555 5557 5559 5562 5566